Miscellaneous Local Product
Issued by NWS Hastings, NE

Home | Current Version | Previous Version | Graphics & Text | Print | Product List | Glossary On
Versions: 1 2 3 4 5 6 7 8 9 10 11 12 13 14 15 16 17 18 19 20 21 22 23 24 25 26 27 28 29 30 31 32 33 34 35 36 37 38 39 40 41 42 43 44 45 46 47 48 49 50
000
AXUS43 KGID 010802
MISGRI

GID CWA HOURLY WEATHER ROUNDUP
NATIONAL WEATHER SERVICE HASTINGS NE
300 AM CDT MON JUN 01 2015

NOTE: "FAIR" INDICATES FEW OR NO CLOUDS BELOW 12,000 FEET WITH NO
SIGNIFICANT WEATHER AND/OR OBSTRUCTIONS TO VISIBILITY.

...SOUTH CENTRAL NEBRASKA...

CITY           SKY/WX    TMP DP  RH WIND       PRES   REMARKS
GRAND ISLAND   CLOUDY    59  49  69 SE12      30.11S
HASTINGS       CLOUDY    59  51  75 S13       30.10R
KEARNEY        PTCLDY    57  52  82 SE10      30.10S
ORD            CLEAR     54  48  80 SE6       30.08S
YORK           CLOUDY    57  48  72 SE8       30.11F
AURORA         CLOUDY    58  48  68 SE10      30.11S
LEXINGTON      PTCLDY    59  54  82 SE10      30.08S
HOLDREGE       CLEAR     57  52  83 SE9       30.08F
HEBRON         CLEAR     55  51  85 SE5       30.12R

...NEBRASKA PANHANDLE...

CITY           SKY/WX    TMP DP  RH WIND       PRES   REMARKS
CHADRON        CLEAR     54  52  93 CALM      30.00F
ALLIANCE       PTCLDY    58  56  93 SE10      30.02F
SCOTTSBLUFF    MOCLDY    57  54  89 E5        30.02F
SIDNEY         CLEAR     53  52  96 NW6       30.06S

...WESTERN AND NORTH CENTRAL NEBRASKA...

CITY           SKY/WX    TMP DP  RH WIND       PRES   REMARKS
VALENTINE      MOCLDY    58  52  80 S10       30.03S
AINSWORTH      CLEAR     54  50  86 S10       30.04F
ONEILL         CLOUDY    59  45  60 SE10      30.09S
BROKEN BOW     CLEAR     56  52  86 SE9       30.08R
IMPERIAL       CLEAR     56  53  90 SE9       30.03S
NORTH PLATTE   PTCLDY    60  53  77 SE12      30.06S
MCCOOK         CLEAR     57  54  89 E9        30.05S

...EASTERN NEBRASKA...

CITY           SKY/WX    TMP DP  RH WIND       PRES   REMARKS
NORFOLK        CLOUDY    54  43  66 SE7       30.12S
SO SIOUX CITY  MOCLDY    55  45  68 CALM      30.15S
TEKAMAH        PTCLDY    50  43  77 CALM      30.14F
COLUMBUS       CLEAR     54  43  66 E7        30.14R
ALBION         MOCLDY    56  44  62 SE8       30.11S
OMAHA EPPLEY   MOCLDY    56  47  71 SE7       30.14F
OFFUTT AFB     MOCLDY    56  50  79 E6        30.13F
MILLARD        MOCLDY    59  46  61 CALM      30.14S
LINCOLN        MOCLDY    57  45  64 CALM      30.14R
NEBRASKA CITY  PTCLDY    58  49  74 SE8       30.14S
BEATRICE       MOCLDY    56  48  76 SE5       30.12F
FALLS CITY     PTCLDY    57  53  86 SE7       30.13S

...NORTHERN KANSAS...

CITY           SKY/WX    TMP DP  RH WIND       PRES   REMARKS
GOODLAND       PTCLDY    55  54  96 S8        30.04F
HILL CITY      CLEAR     59  55  87 SE6       30.07R
NORTON         MOSUNNY   57  52  82 E6        30.07R
PHILLIPSBURG   CLOUDY    63  57  82 E8        30.08S
SMITH CENTER   MOCLDY    57  54  88 SE14      30.10S
HAYS           PTCLDY    61  52  72 SE12      30.07S
RUSSELL        CLOUDY    60  56  86 SE13      30.07F
CONCORDIA      CLEAR     55  52  89 SE9       30.11S
SALINA         CLEAR     56  53  90 S6        30.12R
TOPEKA         PTCLDY    59  55  87 E6        30.13S



USA.gov is the U.S. government's official web portal to all federal, state and local government web resources and services.